FW9567 Weather Reports


Display with metric or nautical units.
time (UTC)temp
F
wind
direction
speed
MPH
gust
MPH
rain 1hr
in
rain 24hr
in
rain mn
in
humidity
%
barometer
mb
20260506235033 55 353 1.0 2.0 0.00 0.36 0.36 55 1013.1
20260506234531 55 3 0.0 0.0 0.00 0.36 0.36 57 1013.2
20260506234028 55 2 0.0 0.0 0.00 0.36 0.36 54 1013.3
20260506233524 55 354 1.0 1.0 0.00 0.36 0.36 55 1013.3
20260506233021 55 17 0.0 0.0 0.00 0.36 0.36 55 1013.1
20260506232517 55 19 1.0 1.0 0.00 0.36 0.36 53 1013.3
20260506232013 55 7 2.0 2.0 0.00 0.36 0.36 53 1013.2
20260506231511 56 5 1.0 2.0 0.00 0.36 0.36 54 1013.3
20260506231008 56 331 2.0 5.0 0.00 0.36 0.36 53 1013.3
20260506230504 56 30 3.0 5.0 0.00 0.36 0.36 55 1013.4
20260506230002 56 22 1.0 1.0 0.00 0.36 0.36 56 1013.7
20260506225459 56 349 2.0 2.0 0.00 0.36 0.36 53 1013.6
20260506224954 56 17 1.0 2.0 0.00 0.36 0.36 56 1013.8
20260506224452 56 224 1.0 2.0 0.00 0.36 0.36 57 1013.7
20260506223948 56 21 2.0 2.0 0.00 0.36 0.36 57 1013.8
20260506223444 56 264 1.0 1.0 0.00 0.36 0.36 56 1013.7
20260506222942 57 51 3.0 5.0 0.00 0.36 0.36 55 1014.0
20260506222438 56 22 1.0 1.0 0.00 0.36 0.36 55 1014.0
20260506221935 56 13 2.0 3.0 0.00 0.36 0.36 55 1013.7
20260506221432 57 10 2.0 3.0 0.00 0.36 0.36 54 1014.0
20260506220930 57 52 1.0 2.0 0.00 0.36 0.36 54 1013.8
20260506220425 57 3 2.0 2.0 0.00 0.36 0.36 54 1013.6
20260506215922 57 11 2.0 3.0 0.00 0.36 0.36 55 1013.2
20260506215418 57 322 1.0 1.0 0.00 0.36 0.36 56 1013.1
20260506214914 57 21 3.0 6.0 0.00 0.36 0.36 53 1013.1
20260506214411 57 7 1.0 1.0 0.00 0.36 0.36 57 1013.1
20260506213909 57 32 1.0 1.0 0.00 0.36 0.36 56 1013.1
20260506213406 57 350 3.0 3.0 0.00 0.36 0.36 57 1012.9
20260506212904 57 21 1.0 2.0 0.00 0.36 0.36 57 1012.9
20260506212359 57 11 1.0 1.0 0.00 0.36 0.36 56 1012.8
20260506211854 57 28 2.0 3.0 0.00 0.36 0.36 56 1012.8
20260506211350 57 312 1.0 2.0 0.00 0.36 0.36 56 1012.9
20260506210848 58 12 2.0 2.0 0.00 0.36 0.36 56 1012.7
20260506210344 58 15 0.0 1.0 0.00 0.36 0.36 56 1012.8
20260506205842 57 354 4.0 6.0 0.00 0.36 0.36 57 1012.7
20260506205337 57 336 1.0 1.0 0.00 0.36 0.36 57 1012.9
20260506204834 58 321 2.0 3.0 0.00 0.36 0.36 55 1012.6
20260506204332 58 12 0.0 0.0 0.00 0.36 0.36 55 1012.6
20260506203829 58 15 1.0 2.0 0.00 0.36 0.36 55 1012.6
20260506203326 58 345 2.0 3.0 0.00 0.36 0.36 52 1012.7
20260506202823 59 352 2.0 2.0 0.00 0.36 0.36 55 1012.5
20260506202320 59 19 1.0 2.0 0.00 0.36 0.36 55 1012.6
20260506201816 59 17 4.0 6.0 0.00 0.36 0.36 55 1012.5
20260506201314 60 10 3.0 3.0 0.00 0.36 0.36 53 1012.3
20260506200811 60 282 3.0 6.0 0.00 0.36 0.36 52 1012.5
20260506200307 60 352 4.0 6.0 0.00 0.36 0.36 52 1012.3
20260506195803 60 355 2.0 3.0 0.00 0.36 0.36 51 1012.5
20260506195301 61 355 4.0 6.0 0.00 0.36 0.36 52 1012.4
20260506194758 61 333 1.0 2.0 0.00 0.36 0.36 50 1012.4
20260506194254 60 345 2.0 2.0 0.00 0.36 0.36 52 1012.4
20260506193752 60 299 3.0 3.0 0.00 0.36 0.36 54 1012.4
20260506193248 61 31 2.0 5.0 0.00 0.36 0.36 52 1012.5
20260506192744 61 6 2.0 2.0 0.00 0.36 0.36 50 1012.3
20260506192241 60 359 2.0 2.0 0.00 0.36 0.36 50 1012.0
20260506191738 60 58 3.0 3.0 0.00 0.36 0.36 54 1012.0
20260506191234 60 354 2.0 2.0 0.00 0.36 0.36 49 1011.9
20260506190732 60 350 2.0 3.0 0.00 0.36 0.36 50 1012.2
20260506190228 60 6 2.0 3.0 0.00 0.36 0.36 54 1012.3
20260506185725 61 339 2.0 2.0 0.00 0.36 0.36 54 1012.4
20260506185221 60 4 2.0 2.0 0.00 0.36 0.36 54 1012.2
20260506184719 60 338 4.0 7.0 0.00 0.36 0.36 53 1012.4
20260506184216 61 111 1.0 1.0 0.00 0.36 0.36 53 1012.3
20260506183713 60 24 2.0 3.0 0.00 0.36 0.36 56 1012.2
20260506183209 60 350 1.0 2.0 0.00 0.36 0.36 53 1012.5
20260506182706 60 47 5.0 6.0 0.00 0.36 0.36 54 1012.5
20260506182203 60 358 3.0 3.0 0.00 0.36 0.36 54 1012.5
20260506181701 60 21 3.0 3.0 0.00 0.36 0.36 54 1012.6
20260506181158 59 5 7.0 9.0 0.00 0.36 0.36 52 1012.6
20260506180655 59 24 5.0 6.0 0.00 0.36 0.36 53 1012.3
20260506180151 59 355 1.0 3.0 0.00 0.36 0.36 53 1012.5
20260506175648 60 356 0.0 1.0 0.00 0.36 0.36 53 1012.4
20260506175144 60 351 1.0 2.0 0.00 0.36 0.36 54 1012.5
20260506174637 58 20 2.0 3.0 0.00 0.36 0.36 55 1012.6
20260506174134 59 36 4.0 6.0 0.00 0.36 0.36 52 1012.7
20260506173631 60 28 3.0 3.0 0.00 0.36 0.36 52 1012.7
20260506173128 59 323 2.0 3.0 0.00 0.36 0.36 57 1012.8
20260506172625 58 353 3.0 5.0 0.00 0.36 0.36 54 1012.6
20260506172121 59 346 4.0 5.0 0.00 0.36 0.36 55 1012.7
20260506171619 59 12 4.0 6.0 0.00 0.36 0.36 55 1012.7
20260506171116 60 42 2.0 3.0 0.00 0.36 0.36 53 1012.8
20260506170613 59 11 1.0 1.0 0.00 0.36 0.36 60 1012.6
20260506170105 58 28 3.0 5.0 0.00 0.36 0.36 59 1012.6
20260506165604 58 32 4.0 5.0 0.00 0.36 0.36 59 1012.2
20260506165059 57 295 4.0 6.0 0.00 0.36 0.36 57 1012.3
20260506164557 59 14 3.0 6.0 0.00 0.36 0.36 56 1012.4
20260506164054 59 7 1.0 2.0 0.00 0.36 0.36 57 1012.6
20260506163549 58 24 5.0 6.0 0.00 0.36 0.36 58 1012.7
20260506163046 58 40 2.0 2.0 0.00 0.36 0.36 61 1012.9
20260506162542 57 39 6.0 7.0 0.00 0.36 0.36 59 1012.8
20260506162039 57 10 2.0 3.0 0.00 0.36 0.36 59 1012.8
20260506161536 57 359 3.0 3.0 0.00 0.36 0.36 60 1012.7
20260506161028 58 5 3.0 5.0 0.00 0.36 0.36 61 1012.7
20260506160526 56 27 2.0 3.0 0.00 0.36 0.36 61 1012.7
20260506160022 57 6 2.0 3.0 0.00 0.36 0.36 62 1012.6
20260506155521 56 3 2.0 2.0 0.00 0.36 0.36 67 1012.4
20260506153657 55 339 1.0 1.0 0.00 0.36 0.36 70 1012.2
20260506153155 54 49 3.0 6.0 0.00 0.36 0.36 67 1012.4
20260506152652 53 5 1.0 2.0 0.00 0.36 0.36 70 1012.2
20260506152149 53 334 3.0 5.0 0.00 0.36 0.36 70 1012.0
20260506151648 54 31 5.0 8.0 0.00 0.36 0.36 71 1011.9
20260506151144 54 337 3.0 5.0 0.00 0.36 0.36 72 1011.8
20260506150641 54 41 2.0 2.0 0.00 0.36 0.36 72 1011.9
20260506150138 53 26 3.0 5.0 0.00 0.36 0.36 71 1011.7
20260506145635 53 45 1.0 2.0 0.00 0.36 0.36 73 1012.0
20260506145131 53 343 2.0 3.0 0.00 0.36 0.36 76 1012.0
20260506144629 52 33 1.0 2.0 0.00 0.36 0.36 75 1011.9
20260506144126 51 20 1.0 1.0 0.00 0.36 0.36 77 1011.7
20260506143624 51 3 3.0 3.0 0.00 0.36 0.36 77 1011.6
20260506143121 51 358 2.0 2.0 0.00 0.36 0.36 80 1011.8
20260506142620 50 11 3.0 5.0 0.00 0.36 0.36 79 1011.7
20260506142117 51 350 3.0 3.0 0.00 0.36 0.36 80 1011.8
20260506141614 51 355 1.0 2.0 0.00 0.36 0.36 80 1011.4
20260506141113 50 23 3.0 5.0 0.00 0.36 0.36 81 1011.3
20260506140610 50 347 1.0 2.0 0.00 0.36 0.36 83 1011.5
20260506140107 50 17 2.0 3.0 0.00 0.36 0.36 84 1011.3
20260506135604 50 2 3.0 3.0 0.00 0.36 0.36 84 1011.0
20260506135100 50 331 2.0 2.0 0.00 0.36 0.36 87 1011.0
20260506134557 48 352 2.0 2.0 0.00 0.36 0.36 91 1011.1
20260506134052 48 331 3.0 5.0 0.00 0.36 0.36 96 1011.0
20260506133550 47 251 2.0 2.0 0.00 0.36 0.36 99 1010.9
20260506133047 46 354 2.0 2.0 0.00 0.36 0.36 99 1011.0
20260506132544 46 21 1.0 1.0 0.00 0.36 0.36 99 1010.8
20260506132041 47 1 1.0 3.0 0.00 0.36 0.36 99 1010.8
20260506131538 47 354 1.0 2.0 0.00 0.36 0.36 99 1010.8
20260506131034 47 343 1.0 2.0 0.00 0.36 0.36 99 1010.7
20260506130532 47 247 0.0 1.0 0.00 0.36 0.36 99 1010.8
20260506130029 47 352 2.0 2.0 0.00 0.36 0.36 99 1010.7
20260506125527 47 352 0.0 1.0 0.00 0.36 0.36 99 1010.6
20260506125025 47 13 1.0 1.0 0.00 0.36 0.36 99 1010.7
20260506124523 47 10 1.0 1.0 0.00 0.36 0.36 99 1010.7
20260506124020 47 348 0.0 0.0 0.00 0.36 0.36 99 1010.6
20260506123518 47 7 1.0 1.0 0.00 0.36 0.36 99 1010.6
20260506123016 47 6 2.0 3.0 0.00 0.36 0.36 99 1010.2
20260506122512 47 12 2.0 3.0 0.00 0.36 0.36 99 1009.8
20260506122010 46 35 2.0 2.0 0.00 0.36 0.36 99 1009.7
20260506121508 46 8 2.0 3.0 0.00 0.36 0.36 99 1009.7
20260506121004 46 0 3.0 3.0 0.00 0.36 0.36 99 1009.9
20260506120502 46 351 2.0 2.0 0.00 0.36 0.36 99 1009.4
20260506115959 46 23 2.0 2.0 0.00 0.36 0.36 99 1009.6
20260506115457 46 20 0.0 0.0 0.00 0.36 0.36 99 1010.0
20260506114955 46 10 1.0 1.0 0.00 0.36 0.36 99 1009.9
20260506114452 46 330 2.0 5.0 0.00 0.36 0.36 99 1009.5
20260506113950 46 21 1.0 1.0 0.00 0.36 0.36 99 1009.7
20260506113448 46 10 1.0 1.0 0.00 0.36 0.36 99 1010.0
20260506112944 46 7 0.0 1.0 0.07 0.36 0.36 99 1009.9
20260506112442 46 11 0.0 1.0 0.07 0.36 0.36 99 1009.4
20260506111939 46 21 1.0 1.0 0.00 0.35 0.35 99 1009.1
20260506111437 46 6 2.0 2.0 0.00 0.35 0.35 99 1008.8
20260506110934 46 351 2.0 2.0 0.00 0.35 0.35 99 1008.9
20260506110432 46 358 3.0 3.0 0.00 0.35 0.35 99 1008.7
20260506105927 46 358 3.0 5.0 0.00 0.35 0.35 99 1008.5
20260506105424 46 18 2.0 2.0 0.00 0.35 0.35 99 1008.2
20260506104921 46 24 2.0 2.0 0.00 0.35 0.35 99 1008.3
20260506104419 46 21 1.0 1.0 0.00 0.35 0.35 99 1008.5
20260506103917 46 2 3.0 3.0 0.00 0.35 0.35 99 1008.7
20260506103414 46 0 0.0 0.0 0.00 0.35 0.35 99 1008.8
20260506102911 46 341 1.0 1.0 0.00 0.35 0.35 99 1008.7
20260506102409 46 23 0.0 1.0 0.00 0.35 0.35 99 1008.6
20260506101906 46 7 0.0 0.0 0.00 0.35 0.35 99 1008.4
20260506101402 46 344 2.0 3.0 0.00 0.35 0.35 99 1008.2
20260506100900 46 345 2.0 3.0 0.00 0.35 0.35 99 1008.1
20260506100358 46 354 3.0 3.0 0.00 0.35 0.35 99 1007.8
20260506095856 46 53 1.0 2.0 0.00 0.35 0.35 99 1007.5
20260506095354 46 9 3.0 3.0 0.00 0.35 0.35 99 1007.5
20260506094850 46 33 2.0 2.0 0.00 0.35 0.35 99 1007.4
20260506094349 46 47 3.0 6.0 0.00 0.35 0.35 99 1007.2
20260506093847 46 23 2.0 2.0 0.00 0.35 0.35 99 1007.4
20260506093344 46 352 3.0 3.0 0.00 0.35 0.35 99 1007.5
20260506092841 46 349 2.0 3.0 0.00 0.35 0.35 99 1007.9
20260506092339 46 358 3.0 5.0 0.00 0.35 0.35 99 1007.8
20260506091836 46 332 2.0 2.0 0.00 0.35 0.35 99 1007.6
20260506091334 46 25 4.0 6.0 0.00 0.35 0.35 99 1007.8
20260506090831 46 28 2.0 2.0 0.05 0.35 0.35 99 1007.4
20260506090328 46 359 1.0 2.0 0.05 0.35 0.35 99 1007.6
20260506085824 46 36 3.0 5.0 0.07 0.34 0.34 99 1007.3
20260506085321 46 348 3.0 3.0 0.07 0.34 0.34 99 1007.2
20260506084818 46 14 1.0 2.0 0.12 0.34 0.34 99 1007.2
20260506084314 46 19 3.0 3.0 0.12 0.33 0.33 99 1007.8
20260506083811 46 30 1.0 2.0 0.07 0.32 0.32 99 1007.8
20260506083309 46 55 3.0 3.0 0.05 0.31 0.31 99 1007.8
20260506082806 46 40 2.0 2.0 0.05 0.31 0.31 99 1007.6
20260506082304 46 351 3.0 5.0 0.14 0.30 0.30 99 1007.6
20260506081759 46 9 3.0 3.0 0.12 0.29 0.29 99 1007.4
20260506081256 46 349 3.0 5.0 0.19 0.29 0.29 99 1007.3
20260506080754 46 342 3.0 8.0 0.12 0.27 0.27 99 1007.3
20260506080250 47 15 3.0 5.0 0.17 0.26 0.26 99 1007.3
20260506073234 47 340 3.0 5.0 0.00 0.23 0.23 99 1006.7
20260506072731 47 82 1.0 1.0 0.00 0.23 0.23 99 1006.8
20260506072229 47 33 1.0 1.0 0.00 0.23 0.23 99 1006.8
20260506071726 48 32 1.0 1.0 0.00 0.23 0.23 99 1006.9
20260506071224 48 343 0.0 1.0 0.07 0.23 0.23 99 1006.6
20260506070721 48 9 3.0 3.0 0.07 0.23 0.23 99 1006.6
20260506070218 48 20 1.0 1.0 0.05 0.22 0.22 99 1006.8
20260506062154 49 24 1.0 1.0 0.12 0.16 0.16 99 1007.0
20260506061650 49 270 3.0 6.0 0.12 0.15 0.15 99 1006.9
20260506061148 49 8 1.0 1.0 0.19 0.14 0.14 99 1007.0
20260506060647 49 346 1.0 1.0 0.17 0.13 0.13 99 1006.8
20260506060143 49 340 2.0 2.0 0.12 0.11 0.11 99 1006.9
20260506051115 51 17 0.0 0.0 0.07 0.01 0.01 99 1007.2
20260506050614 51 356 3.0 6.0 0.00 0.00 0.00 99 1007.0
20260506050110 51 13 1.0 1.0 0.00 0.00 0.00 99 1007.1
20260506045104 51 10 0.0 1.0 0.00 0.00 0.00 99 1007.1
20260506044602 51 24 1.0 1.0 0.00 0.00 0.00 99 1007.2
20260506044058 51 8 1.0 2.0 0.00 0.00 0.00 99 1007.0
20260506043555 51 5 1.0 1.0 0.00 0.00 0.00 99 1007.1
20260506043054 52 33 2.0 2.0 0.00 0.00 0.00 99 1007.3
20260506042553 52 335 0.0 1.0 0.00 0.00 0.00 99 1007.1
20260506042050 52 3 3.0 3.0 0.00 0.00 0.00 99 1007.4
20260506041549 53 17 0.0 0.0 0.00 0.00 0.00 99 1007.2
20260506041045 55 23 3.0 3.0 0.00 0.00 0.00 99 1007.3
20260506040543 57 26 1.0 2.0 0.00 0.00 0.00 99 1007.4
20260506040038 58 165 0.0 0.0 0.00 0.44 0.44 99 1007.3
20260506035536 58 169 0.0 0.0 0.05 0.44 0.44 99 1007.4
20260506035032 58 169 0.0 0.0 0.05 0.44 0.44 99 1007.2
20260506034530 58 170 0.0 0.0 0.07 0.43 0.43 99 1007.2
20260506034026 58 217 0.0 2.0 0.07 0.43 0.43 99 1007.2
20260506033524 58 110 0.0 1.0 0.05 0.42 0.42 99 1007.5
20260506033021 58 15 0.0 0.0 0.12 0.42 0.42 99 1007.6
20260506032518 58 29 0.0 1.0 0.12 0.41 0.41 99 1007.9
20260506032015 58 87 1.0 1.0 0.12 0.40 0.40 99 1007.8
20260506031513 58 150 0.0 0.0 0.19 0.39 0.39 99 1008.0
20260506031009 58 210 1.0 1.0 0.19 0.38 0.38 99 1007.9
20260506030508 58 153 1.0 1.0 0.19 0.37 0.37 99 1008.1
20260506030004 58 25 0.0 0.0 0.12 0.35 0.35 99 1008.2
20260506025501 58 143 0.0 1.0 0.12 0.34 0.34 99 1008.2
20260506024957 59 142 0.0 0.0 0.05 0.33 0.33 99 1008.2
20260506024454 59 119 0.0 0.0 0.00 0.32 0.32 99 1008.2
20260506023950 59 119 1.0 1.0 0.07 0.32 0.32 99 1007.9
20260506023447 59 149 0.0 0.0 0.07 0.32 0.32 99 1008.1
20260506022944 59 164 0.0 1.0 0.05 0.31 0.31 99 1008.1
20260506022442 59 14 0.0 0.0 0.12 0.31 0.31 99 1008.2
20260506021939 59 78 1.0 1.0 0.12 0.30 0.30 99 1008.0
20260506021436 59 193 0.0 0.0 0.17 0.29 0.29 99 1008.3
20260506020933 59 95 1.0 2.0 0.19 0.28 0.28 99 1008.2
20260506020431 59 351 0.0 0.0 0.24 0.27 0.27 99 1008.3
20260506015928 59 99 1.0 1.0 0.19 0.25 0.25 99 1008.0
20260506015426 59 176 0.0 1.0 0.12 0.23 0.23 99 1008.1
20260506014922 59 183 1.0 1.0 0.12 0.22 0.22 99 1008.2
20260506014419 59 20 0.0 0.0 0.12 0.21 0.21 99 1008.0
20260506013916 59 25 0.0 0.0 0.12 0.20 0.20 99 1008.0
20260506013414 59 13 0.0 0.0 0.12 0.19 0.19 99 1007.8
20260506012910 59 17 0.0 0.0 0.05 0.18 0.18 99 1007.8
20260506012406 59 174 0.0 0.0 0.12 0.18 0.18 99 1007.5
20260506011904 59 41 0.0 0.0 0.12 0.17 0.17 99 1007.8
20260506011401 59 27 0.0 0.0 0.05 0.16 0.16 99 1007.5
20260506010858 59 21 0.0 0.0 0.00 0.15 0.15 99 1007.5
20260506010356 59 20 0.0 0.0 0.00 0.15 0.15 99 1007.5
20260506005852 59 21 0.0 0.0 0.00 0.15 0.15 99 1007.4
20260506005350 59 44 0.0 0.0 0.00 0.15 0.15 99 1007.5
20260506004845 59 28 0.0 0.0 0.07 0.15 0.15 99 1007.4
20260506004343 59 15 0.0 0.0 0.07 0.15 0.15 99 1007.8
20260506003839 59 24 0.0 0.0 0.00 0.14 0.14 99 1007.5
20260506003335 59 49 0.0 0.0 0.00 0.14 0.14 99 1007.5
20260506002832 60 41 0.0 0.0 0.00 0.14 0.14 99 1007.8
20260506002328 60 33 0.0 1.0 0.00 0.14 0.14 99 1007.4
20260506001824 60 63 0.0 1.0 0.00 0.14 0.14 99 1007.3
20260506001321 60 192 2.0 2.0 0.00 0.14 0.14 99 1007.4
20260506000818 60 157 0.0 1.0 0.00 0.14 0.14 99 1007.4
20260506000316 60 264 1.0 2.0 0.05 0.14 0.14 99 1007.5
20260505235812 60 24 0.0 0.0 0.05 0.14 0.14 99 1007.6